| time (UTC) | temp F | wind direction | speed MPH | gust MPH | rain 1hr in | rain 24hr in | rain mn in | humidity % | barometer mb |
| 20260509183051 | 60 | 0.0 | 0.0 | 0.00 | 0.00 | 0.00 | 69 | ||
| 20260509180041 | 65 | 114 | 0.0 | 1.0 | 0.00 | 0.00 | 0.00 | 59 | |
| 20260509173051 | 66 | 111 | 1.0 | 4.0 | 0.00 | 0.00 | 0.00 | 55 | |
| 20260509170021 | 68 | 106 | 2.0 | 8.0 | 0.00 | 0.00 | 0.00 | 51 | |
| 20260509163051 | 69 | 98 | 1.0 | 6.0 | 0.00 | 0.00 | 0.00 | 49 | |
| 20260509160021 | 68 | 108 | 1.0 | 6.0 | 0.00 | 0.00 | 0.00 | 51 | |
| 20260509153132 | 69 | 103 | 2.0 | 4.0 | 0.00 | 0.00 | 0.00 | 49 | |
| 20260509150022 | 68 | 104 | 1.0 | 4.0 | 0.00 | 0.00 | 0.00 | 50 | |
| 20260509143233 | 70 | 114 | 1.0 | 6.0 | 0.00 | 0.00 | 0.00 | 48 | |
| 20260509140023 | 69 | 114 | 1.0 | 6.0 | 0.00 | 0.00 | 0.00 | 50 | |
| 20260509133054 | 70 | 127 | 1.0 | 7.0 | 0.00 | 0.00 | 0.00 | 49 | |
| 20260509130024 | 69 | 109 | 1.0 | 3.0 | 0.00 | 0.00 | 0.00 | 51 | |
| 20260509123055 | 68 | 99 | 2.0 | 6.0 | 0.00 | 0.00 | 0.00 | 53 | |
| 20260509120025 | 68 | 96 | 2.0 | 7.0 | 0.00 | 0.00 | 0.00 | 52 | |
| 20260509113116 | 69 | 105 | 2.0 | 6.0 | 0.00 | 0.00 | 0.00 | 53 | |
| 20260509110046 | 68 | 128 | 2.0 | 4.0 | 0.00 | 0.00 | 0.00 | 53 | |
| 20260509103057 | 67 | 131 | 2.0 | 6.0 | 0.00 | 0.00 | 0.00 | 55 | |
| 20260509100027 | 65 | 102 | 2.0 | 7.0 | 0.00 | 0.00 | 0.00 | 58 | |
| 20260509093058 | 63 | 126 | 1.0 | 4.0 | 0.00 | 0.00 | 0.00 | 67 | |
| 20260509090028 | 61 | 120 | 1.0 | 3.0 | 0.00 | 0.00 | 0.00 | 71 | |
| 20260509083059 | 59 | 135 | 1.0 | 3.0 | 0.00 | 0.00 | 0.00 | 74 | |
| 20260509080109 | 56 | 107 | 0.0 | 2.0 | 0.00 | 0.00 | 0.00 | 79 | |
| 20260509073100 | 55 | 107 | 1.0 | 3.0 | 0.00 | 0.00 | 0.00 | 80 | |
| 20260509070030 | 52 | 123 | 0.0 | 3.0 | 0.00 | 0.00 | 0.00 | 85 | |
| 20260509063101 | 49 | 0.0 | 0.0 | 0.00 | 0.00 | 0.00 | 90 | ||
| 20260509060030 | 45 | 0.0 | 0.0 | 0.00 | 0.00 | 0.00 | 95 | ||
| 20260509053101 | 43 | 0.0 | 0.0 | 0.00 | 0.00 | 0.00 | 96 | ||
| 20260509050052 | 43 | 0.0 | 0.0 | 0.00 | 0.00 | 0.00 | 97 | ||
| 20260509043103 | 42 | 0.0 | 0.0 | 0.00 | 0.00 | 0.00 | 97 | ||
| 20260509040033 | 42 | 0.0 | 0.0 | 0.00 | 0.00 | 0.00 | 97 | ||
| 20260509033104 | 42 | 0.0 | 1.0 | 0.00 | 0.00 | 0.00 | 97 | ||
| 20260509030033 | 41 | 0.0 | 0.0 | 0.00 | 0.00 | 0.00 | 97 | ||
| 20260509023105 | 41 | 0.0 | 0.0 | 0.00 | 0.00 | 0.00 | 97 | ||
| 20260509020036 | 42 | 0.0 | 0.0 | 0.00 | 0.00 | 0.00 | 97 | ||
| 20260509013106 | 42 | 0.0 | 0.0 | 0.00 | 0.00 | 0.00 | 97 | ||
| 20260509010038 | 41 | 0.0 | 1.0 | 0.00 | 0.01 | 0.00 | 97 | ||
| 20260509003108 | 41 | 112 | 0.0 | 2.0 | 0.00 | 0.01 | 0.00 | 96 | |
| 20260509000037 | 41 | 0.0 | 0.0 | 0.00 | 0.01 | 0.00 | 95 | ||
| 20260508233108 | 42 | 0.0 | 0.0 | 0.00 | 0.01 | 0.00 | 95 | ||
| 20260508230118 | 43 | 0.0 | 0.0 | 0.00 | 0.01 | 0.00 | 95 | ||
| 20260508223108 | 44 | 0.0 | 0.0 | 0.00 | 0.01 | 0.00 | 94 | ||
| 20260508220039 | 45 | 0.0 | 1.0 | 0.00 | 0.01 | 0.00 | 93 | ||
| 20260508213110 | 46 | 140 | 0.0 | 1.0 | 0.00 | 0.01 | 0.01 | 91 | |
| 20260508210040 | 47 | 159 | 0.0 | 1.0 | 0.00 | 0.01 | 0.01 | 90 | |
| 20260508203111 | 48 | 136 | 0.0 | 1.0 | 0.00 | 0.01 | 0.01 | 88 | |
| 20260508200046 | 50 | 144 | 0.0 | 1.0 | 0.00 | 0.01 | 0.01 | 85 | |
| 20260508193112 | 52 | 131 | 0.0 | 1.0 | 0.00 | 0.01 | 0.01 | 79 | |
| 20260508190042 | 55 | 163 | 0.0 | 1.0 | 0.00 | 0.01 | 0.01 | 71 |